Zurück zum Katalog

STARLINK-34853

AktivKommunikationVLEO
NORAD 65892·PAYLOAD·🇺🇸 United States

Gestartet Oct 7, 2025 von Cape Canaveral Space Force Station

Loading…

Nächste Überflüge (nächste 24 Stunden)

TLE

AktuellSource: CelesTrak SupGP

Epoche: Sep 14, 2026, 21:21 UTC

1 65892C 25224L   26257.89006944  .00026491  00000+0  78244-3 0  2573
2 65892  53.1577 208.2263 0001510 105.7469 213.7286 15.34386795    13

Verfolge STARLINK-34853 in Echtzeit mit AllMySat

Download on the App Store